User: anonymous   Login
Location: Theydon Bois
(51.6750°N, 0.1050°E)
Time: 15:19:32
(UTC+00:00)
Language:

Cosmos 1315 Rocket - Orbit

View from above orbital plane
View from above orbital plane
View from above satellite
View from above satellite

Ground track
Ground track

The orbit data is extracted from the following two-line orbital elements,

1 12904U 81103B   17344.92326443 +.00000650 +00000-0 +43336-4 0  9995
2 12904 081.1784 073.7095 0027887 201.5909 158.4141 15.05410672519196
Epoch (UTC): 10 December 2017 22:09:30
Eccentricity: 0.0027887
inclination: 81.1784°
perigee height: 531 km
apogee height: 569 km
right ascension of ascending node: 73.7095°
argument of perigee: 201.5909°
revolutions per day: 15.05410672
mean anomaly at epoch: 158.4141°
orbit number at epoch: 51919

The dashed part of the orbit path shows where the satellite is in the earth's shadow,  

DLR